[[{"header":{"parameterUnit":"m.s-1","parameterCategory":1,"la1":30.2991,"la2":30.254,"lo1":-89.0895,"lo2":-89.0444,"dy":0.0017,"dx":0.0017,"nx":28,"ny":28,"refTime":"2024-07-05T09:00:00:Z","depth":0,"parameterNumber":2,"parameterNumberName":"U-component_of_WINDS"},"data":[0,0,0,0,0,0,0,0,0,0,0,0,0,0,0,0,0,0,0,0,0,0,0,0,0,0,0,0,0,0,0,0,0,0,0,0,0,0,0,0,0,0,0,0,0,0,0,0,0,0,0,0,0,0,0,0,0,0,4.7004,4.7007,0,4.7206,4.7208,4.7211,4.7201,4.7198,4.7195,4.7193,4.7401,4.7409,4.7417,0,0,0,0,0,0,0,0,0,0,0,0,0,4.6611,4.6619,4.7004,4.7007,4.7009,4.7206,4.7209,4.7211,4.7202,4.7198,4.7195,4.7191,4.7398,4.7408,4.7418,0,0,0,0,0,0,0,0,0,0,0,0,0,4.6795,4.6621,4.7004,4.7028,4.7032,4.7205,4.7209,4.7212,4.7202,4.7198,4.7194,4.719,4.7395,4.7407,4.7419,4.7581,0,0,4.7457,4.7462,0,0,0,0,0,0,0,0,4.6784,4.6809,4.7022,4.7027,4.7032,4.7174,4.7146,4.7336,4.7204,4.7138,4.7193,4.7188,4.7329,4.7346,4.7394,4.7591,4.76,4.7458,4.7465,4.7471,4.7474,0,0,0,0,0,0,0,4.6771,4.68,4.7084,4.7025,4.7031,4.7029,4.705,4.7182,4.7255,4.7143,4.7143,4.7167,4.7331,4.7382,4.7399,4.7603,4.7457,4.7468,4.7476,4.7481,4.7942,4.7946,0,0,0,0,0,0,4.6753,4.679,4.7078,4.709,4.6895,4.704,4.7064,4.7133,4.7254,4.7268,4.717,4.7166,4.7363,4.7384,4.7406,4.7601,4.747,4.7482,4.7489,4.7937,4.7943,4.7948,0,0,0,0,0,0,4.6745,4.6779,4.707,4.694,4.6977,4.7051,4.7129,4.7139,4.719,4.7274,4.7287,4.7209,4.736,4.7388,4.7537,4.7609,4.7488,4.7499,4.7931,4.7939,4.7945,4.7995,0,0,0,0,0,0,4.6734,4.6776,4.6838,4.6941,4.6984,4.7197,4.7133,4.7146,4.7211,4.7207,4.7314,4.7328,4.7359,4.7519,4.7549,4.7623,4.7508,4.7925,4.7934,4.7943,4.7988,4.8003,4.8017,0,0,0,0,0,4.672,4.6845,4.6842,4.6876,4.7063,4.7201,4.7226,4.7259,4.7217,4.728,4.7334,4.7324,4.7597,4.7534,4.7569,4.7647,4.7921,4.7932,4.7942,4.7981,4.8,4.8017,0,0,0,0,0,0,4.6749,4.6859,4.6856,4.7019,4.7101,4.72,4.728,4.7279,4.7375,4.7367,4.7405,4.7429,4.7577,4.7628,4.7556,4.781,4.7753,4.7771,4.7771,4.779,4.7804,4.7788,4.7519,0,0,0,0,0,4.6775,4.6878,4.6968,4.7103,4.7144,4.7205,4.7267,4.7285,4.7372,4.7407,4.7472,4.7556,4.7661,4.7729,4.783,4.7996,4.8018,4.8067,4.8082,4.8094,4.8108,4.8197,4.8219,4.7984,4.7984,4.7983,0,0,4.6828,4.6901,4.6964,4.7111,4.7176,4.7282,4.7234,4.7349,4.7427,4.7424,4.7567,4.7618,4.7716,4.7873,4.7946,4.7919,4.8178,4.8108,4.8116,4.8124,4.8211,4.8233,4.8253,4.7991,4.799,4.7989,0,0,4.6979,4.7045,4.7163,4.723,4.7329,4.7369,4.7398,4.7497,4.753,4.7675,4.7674,4.7769,4.7949,4.8017,4.8075,4.8252,4.8245,4.8284,4.8359,4.8446,4.8464,4.8481,4.8541,4.8562,4.8299,4.8299,4.8299,0,4.7032,4.719,4.7224,4.7338,4.7402,4.7405,4.7524,4.7588,4.7716,4.776,4.7729,4.7953,4.8019,4.8191,4.8234,4.8283,4.8315,4.827,4.8459,4.8476,4.8492,4.855,4.8572,4.8303,4.8302,4.8302,4.8301,0,4.725,4.736,4.7444,4.7565,4.764,4.7756,4.7807,4.7878,4.7891,4.7934,4.808,4.816,4.8275,4.8319,4.8333,4.8493,4.8473,4.8451,4.8394,4.8518,4.8572,4.8595,4.8308,4.8307,4.8305,4.8305,0,0,4.7423,4.7562,4.7592,4.7646,4.7756,4.7842,4.7959,4.8071,4.813,4.8219,4.8316,4.8469,4.8448,4.8514,4.8536,4.8613,4.8744,4.8581,4.8584,4.8605,4.8922,4.8935,4.8961,4.8742,4.8746,4.875,4.8913,0,4.7582,4.7787,4.7821,4.8001,4.8101,4.8106,4.8207,4.8286,4.8329,4.8421,4.847,4.8576,4.8542,4.8582,4.8658,4.8712,4.8807,4.8701,4.8831,4.8835,4.8803,4.899,4.9005,4.9155,4.8935,4.8938,4.8941,0,4.7795,4.7887,4.8076,4.8171,4.8215,4.8305,4.841,4.8499,4.8588,4.8614,4.8688,4.8701,4.8822,4.8762,4.8928,4.8854,4.891,4.8945,4.8952,4.8962,4.8893,4.9002,4.9204,4.9224,4.8976,4.8973,4.897,0,4.7897,4.807,4.8205,4.8252,4.8367,4.843,4.8481,4.8566,4.8631,4.8724,4.8766,4.8872,4.8929,4.9011,4.9052,4.9005,4.9214,4.9159,4.9238,4.9237,4.9279,4.9275,4.9488,4.9321,4.932,4.932,4.932,0,4.8069,4.8184,4.8252,4.8334,4.8463,4.8502,4.8628,4.8678,4.8753,4.8845,4.8858,4.8944,4.8994,4.9088,4.9122,4.9252,4.9279,4.9302,4.9309,4.9299,4.9296,4.9334,4.9323,4.9326,4.9325,4.9324,4.9323,0,4.8204,4.8255,4.8401,4.8498,4.8525,4.8615,4.8698,4.8779,4.8822,4.8939,4.8968,4.9037,4.9148,4.9197,4.9335,4.9357,4.9505,4.9507,4.9474,4.9476,4.9551,4.9542,4.9793,4.9827,4.964,4.9642,4.9644,0,4.8309,4.8397,4.8503,4.8565,4.8617,4.8718,4.8784,4.8826,4.8894,4.9002,4.9069,4.918,4.9271,4.9448,4.951,4.9615,4.9616,4.9697,4.9632,4.9618,4.9613,4.9606,4.9614,4.9708,4.971,4.9711,4.9713,0,4.8488,4.8508,4.8603,4.8706,4.8784,4.8868,4.8949,4.9,4.9055,4.9131,4.9244,4.9314,4.9454,4.9563,4.9672,4.9725,4.9727,4.9733,4.9756,4.9745,4.9721,4.9732,4.9503,4.9726,4.9725,4.9724,4.9723,4.9723,4.8609,4.8686,4.8772,4.8877,4.8943,4.9019,4.9098,4.9151,4.9246,4.9361,4.9381,4.9501,4.9588,4.9734,4.9791,4.9885,4.9865,4.99,4.9908,4.9915,4.9917,4.9709,4.9905,4.9905,4.9905,4.9904,4.9904,0,4.8786,4.8841,4.8937,4.905,4.9132,4.9128,4.9218,4.9287,4.9392,4.9472,4.9561,4.969,4.9796,4.9867,4.9974,5.0036,5.0039,5.0062,5.0056,5.0068,4.993,4.9898,5.0057,5.0057,5.0057,5.0057,5.0057,5.0057,4.8887,4.9017,4.9047,4.921,4.9265,4.9381,4.9433,4.9503,4.9567,4.971,4.9797,4.9843,4.9919,5.0032,5.0129,5.0147,5.0184,5.0208,5.0224,5.0094,5.0078,5.0062,5.0032,5.0216,5.0217,5.0353,5.0354,5.0355]},{"header":{"parameterUnit":"m.s-1","parameterCategory":1,"la1":30.2991,"la2":30.254,"lo1":-89.0895,"lo2":-89.0444,"dy":0.0017,"dx":0.0017,"nx":28,"ny":28,"refTime":"2024-07-05T09:00:00:Z","depth":0,"parameterNumber":3,"parameterNumberName":"V-component_of_WINDS"},"data":[0,0,0,0,0,0,0,0,0,0,0,0,0,0,0,0,0,0,0,0,0,0,0,0,0,0,0,0,0,0,0,0,0,0,0,0,0,0,0,0,0,0,0,0,0,0,0,0,0,0,0,0,0,0,0,0,0,0,2.5213,2.5212,0,2.5194,2.5194,2.5193,2.5178,2.5178,2.5178,2.5178,2.5157,2.5156,2.5156,0,0,0,0,0,0,0,0,0,0,0,0,0,2.5232,2.5232,2.5213,2.5212,2.5212,2.5194,2.5194,2.5193,2.5178,2.5178,2.5178,2.5178,2.5157,2.5156,2.5156,0,0,0,0,0,0,0,0,0,0,0,0,0,2.5219,2.5232,2.5213,2.5202,2.5201,2.5194,2.5194,2.5193,2.5178,2.5178,2.5178,2.5177,2.5157,2.5156,2.5156,2.5157,0,0,2.5154,2.5154,0,0,0,0,0,0,0,0,2.522,2.5219,2.5204,2.5203,2.5202,2.5188,2.5193,2.5181,2.5178,2.5187,2.5178,2.5177,2.5167,2.5166,2.5163,2.5156,2.5155,2.5154,2.5154,2.5153,2.5153,0,0,0,0,0,0,0,2.5221,2.5219,2.5205,2.5204,2.5203,2.5198,2.5196,2.519,2.5179,2.5186,2.5185,2.5183,2.5167,2.5163,2.5162,2.5154,2.5154,2.5153,2.5153,2.5153,2.5144,2.5144,0,0,0,0,0,0,2.5224,2.522,2.5206,2.5205,2.5211,2.5197,2.5195,2.5193,2.5179,2.5176,2.5183,2.5182,2.5165,2.5163,2.5161,2.516,2.5153,2.5153,2.5152,2.5144,2.5144,2.5144,0,0,0,0,0,0,2.5224,2.5223,2.5207,2.5212,2.521,2.5197,2.5195,2.5192,2.5189,2.5176,2.5174,2.5182,2.5164,2.5162,2.5157,2.5159,2.5152,2.5152,2.5144,2.5144,2.5144,2.5158,0,0,0,0,0,0,2.5225,2.5223,2.5224,2.5212,2.5209,2.5204,2.5195,2.5192,2.5188,2.5187,2.5175,2.5173,2.5164,2.5158,2.5157,2.5158,2.5151,2.5144,2.5144,2.5144,2.5157,2.5158,2.5159,0,0,0,0,0,2.5226,2.5229,2.5224,2.5223,2.5211,2.5204,2.5202,2.5193,2.5189,2.5189,2.518,2.5173,2.5159,2.5158,2.5156,2.5157,2.5144,2.5144,2.5144,2.5156,2.5158,2.5159,0,0,0,0,0,0,2.5241,2.5227,2.5222,2.5222,2.5214,2.5202,2.5202,2.5195,2.5188,2.5187,2.5175,2.5172,2.5169,2.5162,2.5162,2.5156,2.515,2.515,2.516,2.5161,2.5163,2.5164,2.5151,0,0,0,0,0,2.5245,2.5241,2.5229,2.5229,2.5226,2.5215,2.5211,2.5204,2.5196,2.5193,2.5184,2.5175,2.5169,2.5165,2.5158,2.5156,2.5152,2.5155,2.5156,2.5157,2.5157,2.5153,2.5154,2.5146,2.5146,2.5146,0,0,2.5251,2.5243,2.5242,2.5232,2.5226,2.5221,2.5212,2.5208,2.5205,2.5192,2.5187,2.518,2.5169,2.5165,2.5163,2.516,2.5159,2.5158,2.5159,2.5158,2.5154,2.5155,2.5155,2.5146,2.5146,2.5146,0,0,2.5262,2.5256,2.5255,2.5248,2.5238,2.523,2.523,2.5218,2.5213,2.5207,2.5197,2.5192,2.5181,2.5174,2.5168,2.5173,2.5165,2.5171,2.5177,2.5174,2.5174,2.5175,2.5175,2.5175,2.5171,2.5171,2.5171,0,2.5271,2.5265,2.5255,2.5251,2.5246,2.5235,2.5233,2.5226,2.5215,2.5211,2.5208,2.5193,2.5185,2.5178,2.5179,2.5175,2.5173,2.5173,2.5175,2.5175,2.5176,2.5176,2.5176,2.5172,2.5172,2.5172,2.5172,0,2.5276,2.5272,2.5272,2.5261,2.5256,2.5254,2.5242,2.5238,2.523,2.5222,2.5216,2.5206,2.5196,2.5194,2.5187,2.5185,2.5183,2.5178,2.5172,2.5177,2.5177,2.5177,2.5173,2.5173,2.5172,2.5172,0,0,2.5297,2.5279,2.5279,2.5273,2.526,2.5256,2.5252,2.5242,2.5238,2.523,2.5225,2.5215,2.5209,2.5203,2.5195,2.5192,2.5194,2.5187,2.5186,2.5188,2.519,2.5193,2.5194,2.5189,2.5189,2.5189,2.519,0,2.5304,2.5296,2.5286,2.5281,2.5276,2.5264,2.526,2.5251,2.5243,2.5236,2.5226,2.5219,2.5213,2.5209,2.5205,2.5195,2.5194,2.5195,2.5183,2.5183,2.5186,2.5194,2.5198,2.5199,2.519,2.519,2.519,0,2.5312,2.5304,2.5299,2.5284,2.5282,2.5279,2.5268,2.5262,2.5251,2.5245,2.5237,2.5228,2.5221,2.5216,2.5205,2.5206,2.52,2.5194,2.5194,2.5192,2.5187,2.5191,2.52,2.52,2.519,2.519,2.519,0,2.5325,2.5313,2.5308,2.5303,2.5287,2.5285,2.5278,2.5266,2.5261,2.5251,2.5247,2.5236,2.523,2.5222,2.5209,2.5207,2.5199,2.5194,2.5193,2.5193,2.5192,2.5192,2.5199,2.5189,2.5189,2.5189,2.5189,0,2.5334,2.5331,2.5314,2.5311,2.5306,2.5293,2.5289,2.5281,2.527,2.5264,2.5253,2.5247,2.5231,2.5223,2.5213,2.5205,2.5203,2.5196,2.5194,2.5197,2.5198,2.5193,2.5192,2.5189,2.5189,2.5189,2.5189,0,2.5348,2.5337,2.533,2.5315,2.5311,2.5308,2.5295,2.529,2.5281,2.5273,2.527,2.5255,2.5245,2.5232,2.5217,2.521,2.5203,2.5199,2.5207,2.5205,2.5205,2.5205,2.5208,2.5208,2.5199,2.52,2.52,0,2.5354,2.5351,2.5336,2.5331,2.5324,2.5317,2.5311,2.5298,2.5292,2.5277,2.5274,2.5263,2.5253,2.5237,2.5224,2.5212,2.5208,2.521,2.5206,2.5209,2.5206,2.5206,2.5205,2.5211,2.5211,2.5211,2.5211,0,2.5365,2.5359,2.5352,2.5341,2.5334,2.5325,2.5316,2.5312,2.5297,2.529,2.528,2.5272,2.5257,2.5245,2.5231,2.5223,2.5214,2.5212,2.5211,2.5215,2.5219,2.5215,2.5209,2.5212,2.5212,2.5212,2.5212,2.5212,2.5375,2.5371,2.5359,2.535,2.5342,2.5332,2.5327,2.5317,2.5308,2.5295,2.5287,2.5276,2.5263,2.5244,2.5235,2.5225,2.5222,2.5221,2.5221,2.5221,2.5221,2.5221,2.5223,2.5223,2.5223,2.5223,2.5223,0,2.5384,2.5376,2.5368,2.5355,2.5347,2.534,2.5328,2.5322,2.5313,2.5302,2.5292,2.5279,2.5267,2.5253,2.5239,2.5234,2.523,2.5231,2.5231,2.5229,2.5225,2.5227,2.5235,2.5235,2.5235,2.5235,2.5235,2.5235,2.5388,2.5381,2.5374,2.5362,2.5353,2.5343,2.5336,2.5327,2.5318,2.5304,2.5294,2.5285,2.5272,2.5257,2.5246,2.5241,2.5237,2.5239,2.5234,2.5231,2.523,2.5228,2.523,2.5239,2.5239,2.5238,2.5238,2.5238]}]]